Location: Dodge City Community College Clyde Tombaugh Astronomy Center
(37.7756°N, 100.0412°W)
Time: 15:12:48
(UTC+00:00)

Cosmos 2227 Rocket - Pass Details

Date: 08 December 2021
Orbit: 840 x 843 km, 71.0° (Epoch: 20 January)

Event Time Altitude Azimuth Distance (km) Brightness Sun altitude
Rises 13:01:28 0° 345° (NNW) 3,402 5.0 -8.3°
Reaches altitude 10° 13:04:06 10° 353° (N) 2,464 4.3 -7.8°
Maximum altitude 13:09:20 38° 61° (ENE) 1,262 3.5 -6.9°
Drops below altitude 10° 13:14:33 10° 129° (SE) 2,450 6.2 -5.9°
Sets 13:17:09 0° 137° (SE) 3,381 6.8 -5.5°
